Regional Weather Roundup
Issued by NWS

Home | Current Version | Previous Version | Text Only | Print | Product List | Glossary On
Versions: 1 2 3 4 5 6 7 8 9 10 11 12 13 14 15 16 17 18 19 20 21 22 23 24 25 26 27 28 29 30 31 32 33 34 35 36 37 38 39 40 41 42 43 44 45 46 47 48 49 50
000
ASUS45 KPSR 280110
RWRAZ

ARIZONA HOURLY REGIONAL WEATHER ROUNDUP
NATIONAL WEATHER SERVICE PHOENIX AZ
600 PM MST FRI MAY 27 2016

NOTE: FAIR INDICATES FEW OR NO CLOUDS BELOW 12,000 FEET WITH NO
SIGNIFICANT WEATHER AND/OR OBSTRUCTIONS TO VISIBILITY.

AZZ001>003-036-280200-
NORTHWEST ARIZONA

CITY           SKY/WX    TMP DP  RH WIND       PRES   REMARKS
KINGMAN        MOSUNNY   82  25  12 VRB7      29.84F
$$

AZZ004>008-015-016-018-280200-
NORTH CENTRAL ARIZONA

CITY           SKY/WX    TMP DP  RH WIND       PRES   REMARKS
GRAND CANYON   PTSUNNY   67  25  20 NW12      30.00F
WILLIAMS       PTSUNNY   64  23  20 W8G16     30.08S
PRESCOTT       MOSUNNY   75  24  15 W14G20    29.92F
FLAGSTAFF      PTSUNNY   63  25  23 W10       30.03S
PAYSON         MOSUNNY   73  25  16 W12G17    29.96S
PAGE           MOSUNNY   77  28  16 NW5       29.84F
$$

AZZ009>014-017-280200-
NORTHEAST ARIZONA

CITY           SKY/WX    TMP DP  RH WIND       PRES   REMARKS
WINSLOW        PTSUNNY   73  28  18 SW30G44   29.91S
SAINT JOHNS    PTSUNNY   71  23  16 NW14      29.93S
WINDOW ROCK    PTSUNNY   67  21  17 W14       29.98R
SHOW LOW       PTSUNNY   63  27  25 N9G30     30.01S
$$

AZZ023-280200-
GREATER PHOENIX AREA

CITY           SKY/WX    TMP DP  RH WIND       PRES   REMARKS
PHOENIX        MOSUNNY   90  27  10 CALM      29.71F
BUCKEYE        SUNNY     90  32  12 S6        29.74S
GLENDALE       MOSUNNY   91  23   8 S8        29.73F
LUKE AFB       SUNNY     91  22   8 SW10      29.71S
DEER VALLEY    SUNNY     89  29  11 SW13      29.73F
SCOTTSDALE     SUNNY     89  26  10 W7        29.75F
MESA-GATEWAY   SUNNY     90  28  11 W8        29.75F
CHANDLER       SUNNY     90  27  10 SW7       29.73F
$$

AZZ027-028-280200-
SOUTHWEST MARICOPA COUNTY AND PINAL COUNTY

CITY           SKY/WX    TMP DP  RH WIND       PRES   REMARKS
CASA GRANDE    SUNNY     88  30  12 W5        29.77S
GILA BEND      FAIR      90  29  11 NW5       29.71F
$$

AZZ503-504-507>509-280200-
SOUTHEAST ARIZONA

CITY           SKY/WX    TMP DP  RH WIND       PRES   REMARKS
TUCSON         SUNNY     87  22   9 NW8       29.82F
DAVIS-MONTHAN  SUNNY     85  20   9 N5        29.80F
RYAN FIELD     SUNNY     86  28  12 NW14      29.80F
NOGALES        SUNNY     82  17   9 SW10G17   29.87S
SIERRA VISTA   SUNNY     78  15   9 W9G18     29.92S
DOUGLAS        SUNNY     82  11   7 W14       29.86F
SAFFORD        SUNNY     84  17   8 W16G23    29.79F
$$

AZZ020-021-025-026-031-280200-
SOUTHWEST ARIZONA

CITY           SKY/WX    TMP DP  RH WIND       PRES   REMARKS
YUMA           SUNNY     92  39  15 SW9       29.70F
$$

CAZ031-033-041-043-047-048-061-280200-
SOUTHERN CALIFORNIA

CITY           SKY/WX    TMP DP  RH WIND       PRES   REMARKS
DOWNTOWN L.A.  SUNNY     68  57  68 W6        29.83F
L.A. AIRPORT   MOSUNNY   64  56  75 W14       29.85S
SAN DIEGO      CLOUDY    65  54  67 W8        29.90R
BURBANK        SUNNY     71  55  56 S9        29.82S
ONTARIO        MOSUNNY   75  53  46 W15       29.81S
RIVERSIDE      SUNNY     76  51  41 W13G23    29.81R
PALM SPRINGS   SUNNY     94  42  16 NW12G24   29.69F
EL CENTRO NAS  MOSUNNY   93  33  12 E5        29.69F
IMPERIAL       SUNNY     94  34  12 SW5       29.67F
BLYTHE         SUNNY     93  37  14 S10       29.68F
NEEDLES        SUNNY     95  31  10 SW13G18   29.68F
$$

NVZ020-UTZ003-280200-
SOUTHERN NEVADA-UTAH

CITY           SKY/WX    TMP DP  RH WIND       PRES   REMARKS
LAS VEGAS      MOSUNNY   88  26  10 CALM      29.70F
SALT LAKE CITY PTSUNNY   70  34  26 N6        29.88S
$$

NMZ009-TXZ055-280200-
NEW MEXICO-WEST TEXAS

CITY           SKY/WX    TMP DP  RH WIND       PRES   REMARKS
ALBUQUERQUE    CLOUDY    71  26  18 SW21G38   29.88R
EL PASO        SUNNY     82  15   8 W13       29.84S
$$


........................KEY........................
SKY/WX - SKY CONDITION/WEATHER
TMP    - TEMPERATURE IN FAHRENHEIT
DP     - DEW POINT IN FAHRENHEIT
RH     - RELATIVE HUMIDITY IN PERCENT
WIND   - DIRECTION AND SPEED IN MILES PER HOUR (MPH)
VRB    - VARIABLE WIND DIRECTION
PRES   - MEAN SEA LEVEL PRESSURE IN INCHES OF MERCURY
         F - FALLING PRESSURE   R - RISING PRESSURE
         S - STEADY PRESSURE
VSB    - VISIBILITY IN MILES
HX     - HEAT INDEX IN FAHRENHEIT
WCI    - WIND CHILL INDEX IN FAHRENHEIT
TC     - TEMPERATURE IN CELSIUS WHICH IS ALSO KNOWN AS
         TEMPERATURE IN CENTIGRADE
AFB    - AIR FORCE BASE
         LUKE AFB IS LUKE AIR FORCE BASE
         DAVIS-MONTHAN IS DAVIS-MONTHAN AIR FORCE BASE
NAS    - NAVAL AIR STATION
         EL CENTRO NAS IS EL CENTRO NAVAL AIR STATION
N/A    - NOT AVAILABLE




USA.gov is the U.S. government's official web portal to all federal, state and local government web resources and services.